Location: Unspecified
(0.0000°N, 0.0000°E)
Time: 01:19:36
(UTC+00:00)

ACS3 Solar Sail - Pass Details

Date: 14 November 2025
Orbit: 887 x 1000 km, 97.3° (Epoch: 14 December)

Event Time Altitude Azimuth Distance (km) Brightness Sun altitude
Exits shadow 02:29:06 13° 160° (SSE) 2,529 4.3 -45.6°
Drops below altitude 10° 02:29:51 10° 163° (SSE) 2,770 4.5 -45.5°
Sets 02:32:37 0° 173° (S) 3,734 5.2 -44.8°
